| time (UTC) | temp F | wind direction | speed knots | gust knots | rain 1hr in | rain 24hr in | rain mn in | humidity % | barometer mb |
| 20260906115433 | 80 | 236 | 0.0 | 1.7 | 0.00 | 0.00 | 0.00 | 95 | 1011.1 |
| 20260906114932 | 79 | 303 | 0.0 | 0.0 | 0.00 | 0.00 | 0.00 | 95 | 1010.8 |
| 20260906114427 | 79 | 304 | 0.0 | 0.9 | 0.00 | 0.00 | 0.00 | 95 | 1010.8 |
| 20260906113923 | 79 | 304 | 0.0 | 1.7 | 0.00 | 0.00 | 0.00 | 95 | 1010.8 |
| 20260906113421 | 79 | 304 | 0.0 | 1.7 | 0.00 | 0.00 | 0.00 | 95 | 1010.5 |
| 20260906112917 | 79 | 301 | 0.0 | 1.7 | 0.00 | 0.00 | 0.00 | 95 | 1010.8 |
| 20260906112413 | 79 | 295 | 0.0 | 2.6 | 0.00 | 0.00 | 0.00 | 95 | 1010.5 |
| 20260906111908 | 79 | 319 | 0.0 | 2.6 | 0.00 | 0.00 | 0.00 | 95 | 1010.5 |
| 20260906111407 | 79 | 288 | 0.0 | 1.7 | 0.00 | 0.00 | 0.00 | 95 | 1010.5 |
| 20260906110902 | 79 | 288 | 0.0 | 2.6 | 0.00 | 0.00 | 0.00 | 95 | 1010.5 |
| 20260906110358 | 79 | 297 | 2.6 | 2.6 | 0.00 | 0.00 | 0.00 | 95 | 1010.1 |
| 20260906105857 | 79 | 224 | 0.0 | 2.6 | 0.00 | 0.00 | 0.00 | 95 | 1010.5 |
| 20260906105353 | 79 | 259 | 0.9 | 4.3 | 0.00 | 0.00 | 0.00 | 95 | 1010.1 |
| 20260906104848 | 79 | 257 | 0.9 | 4.3 | 0.00 | 0.00 | 0.00 | 95 | 1010.1 |
| 20260906104347 | 79 | 325 | 0.9 | 2.6 | 0.00 | 0.00 | 0.00 | 95 | 1010.5 |
| 20260906103845 | 79 | 274 | 0.0 | 1.7 | 0.00 | 0.00 | 0.00 | 95 | 1010.1 |
| 20260906103344 | 79 | 279 | 0.0 | 1.7 | 0.00 | 0.00 | 0.00 | 95 | 1010.1 |
| 20260906102840 | 79 | 260 | 0.0 | 1.7 | 0.00 | 0.00 | 0.00 | 95 | 1010.1 |
| 20260906102339 | 79 | 272 | 0.0 | 2.6 | 0.00 | 0.00 | 0.00 | 95 | 1010.1 |
| 20260906101834 | 79 | 246 | 0.9 | 6.1 | 0.00 | 0.00 | 0.00 | 95 | 1010.1 |
| 20260906101329 | 79 | 286 | 0.0 | 6.1 | 0.00 | 0.00 | 0.00 | 95 | 1010.5 |
| 20260906100825 | 79 | 243 | 1.7 | 1.7 | 0.00 | 0.00 | 0.00 | 95 | 1010.1 |
| 20260906100324 | 79 | 251 | 0.0 | 1.7 | 0.00 | 0.00 | 0.00 | 95 | 1010.1 |
| 20260906095819 | 79 | 228 | 0.0 | 1.7 | 0.00 | 0.00 | 0.00 | 95 | 1010.1 |
| 20260906095315 | 79 | 245 | 0.0 | 2.6 | 0.00 | 0.00 | 0.00 | 95 | 1010.1 |
| 20260906094814 | 79 | 261 | 0.9 | 2.6 | 0.00 | 0.00 | 0.00 | 95 | 1010.1 |
| 20260906094309 | 79 | 231 | 0.0 | 1.7 | 0.00 | 0.00 | 0.00 | 95 | 1010.1 |
| 20260906093805 | 79 | 267 | 0.9 | 1.7 | 0.00 | 0.00 | 0.00 | 95 | 1009.8 |
| 20260906093301 | 79 | 230 | 0.0 | 0.9 | 0.00 | 0.00 | 0.00 | 95 | 1009.8 |
| 20260906092755 | 79 | 230 | 0.0 | 0.9 | 0.00 | 0.00 | 0.00 | 95 | 1010.1 |
| 20260906092250 | 80 | 220 | 0.9 | 2.6 | 0.00 | 0.00 | 0.00 | 95 | 1009.8 |
| 20260906091746 | 80 | 307 | 0.0 | 2.6 | 0.00 | 0.00 | 0.00 | 95 | 1009.8 |
| 20260906091242 | 80 | 306 | 0.0 | 2.6 | 0.00 | 0.00 | 0.00 | 95 | 1009.8 |
| 20260906090738 | 80 | 344 | 0.9 | 1.7 | 0.00 | 0.00 | 0.00 | 95 | 1009.8 |
| 20260906090237 | 80 | 260 | 0.0 | 1.7 | 0.00 | 0.00 | 0.00 | 95 | 1010.1 |
| 20260906085736 | 80 | 232 | 0.9 | 1.7 | 0.00 | 0.00 | 0.00 | 95 | 1009.8 |
| 20260906085236 | 80 | 284 | 0.9 | 1.7 | 0.00 | 0.00 | 0.00 | 95 | 1010.1 |
| 20260906084730 | 80 | 288 | 0.0 | 1.7 | 0.00 | 0.00 | 0.00 | 95 | 1010.1 |
| 20260906084225 | 80 | 290 | 0.0 | 1.7 | 0.00 | 0.00 | 0.00 | 95 | 1009.8 |
| 20260906083720 | 80 | 218 | 0.0 | 0.0 | 0.00 | 0.00 | 0.00 | 95 | 1010.1 |
| 20260906083215 | 80 | 218 | 0.0 | 0.9 | 0.00 | 0.00 | 0.00 | 95 | 1010.1 |
| 20260906082710 | 80 | 218 | 0.0 | 0.9 | 0.00 | 0.00 | 0.00 | 95 | 1010.1 |
| 20260906082205 | 80 | 218 | 0.9 | 0.9 | 0.00 | 0.00 | 0.00 | 95 | 1009.8 |
| 20260906081702 | 80 | 217 | 0.0 | 0.9 | 0.00 | 0.00 | 0.00 | 95 | 1010.1 |
| 20260906081156 | 80 | 217 | 0.0 | 0.0 | 0.00 | 0.00 | 0.00 | 95 | 1010.1 |
| 20260906080653 | 80 | 217 | 0.0 | 0.0 | 0.00 | 0.00 | 0.00 | 95 | 1010.5 |
| 20260906080149 | 79 | 217 | 0.0 | 1.7 | 0.00 | 0.00 | 0.00 | 95 | 1010.1 |
| 20260906075648 | 80 | 217 | 0.0 | 1.7 | 0.00 | 0.00 | 0.00 | 95 | 1010.1 |
| 20260906075143 | 80 | 217 | 0.9 | 0.9 | 0.00 | 0.00 | 0.00 | 95 | 1009.8 |
| 20260906074638 | 80 | 218 | 0.0 | 0.9 | 0.00 | 0.00 | 0.00 | 95 | 1009.8 |
| 20260906074137 | 80 | 218 | 0.0 | 1.7 | 0.00 | 0.00 | 0.00 | 95 | 1010.1 |
| 20260906073632 | 80 | 209 | 0.0 | 0.9 | 0.00 | 0.00 | 0.00 | 94 | 1010.1 |
| 20260906073128 | 80 | 208 | 0.0 | 0.9 | 0.00 | 0.00 | 0.00 | 94 | 1010.1 |
| 20260906072622 | 80 | 208 | 0.0 | 0.9 | 0.00 | 0.00 | 0.00 | 94 | 1010.1 |
| 20260906072118 | 80 | 208 | 0.0 | 0.9 | 0.00 | 0.00 | 0.00 | 94 | 1009.8 |
| 20260906071615 | 80 | 167 | 0.0 | 0.0 | 0.00 | 0.00 | 0.00 | 94 | 1010.1 |
| 20260906071109 | 80 | 167 | 0.0 | 0.0 | 0.00 | 0.00 | 0.00 | 94 | 1010.1 |
| 20260906070606 | 80 | 167 | 0.0 | 0.9 | 0.00 | 0.00 | 0.00 | 94 | 1010.1 |
| 20260906070101 | 80 | 167 | 0.0 | 2.6 | 0.00 | 0.00 | 0.00 | 94 | 1010.1 |
| 20260906065600 | 80 | 167 | 0.0 | 2.6 | 0.00 | 0.00 | 0.00 | 94 | 1009.8 |
| 20260906065056 | 80 | 241 | 0.0 | 0.9 | 0.00 | 0.00 | 0.00 | 94 | 1010.1 |
| 20260906064552 | 80 | 241 | 0.0 | 0.9 | 0.00 | 0.00 | 0.00 | 94 | 1010.1 |
| 20260906064046 | 80 | 241 | 0.0 | 0.9 | 0.00 | 0.00 | 0.00 | 94 | 1009.8 |
| 20260906063541 | 80 | 237 | 0.0 | 0.9 | 0.00 | 0.00 | 0.00 | 94 | 1010.1 |
| 20260906063038 | 80 | 237 | 0.9 | 0.9 | 0.00 | 0.00 | 0.00 | 94 | 1010.1 |
| 20260906062533 | 80 | 237 | 0.0 | 0.9 | 0.00 | 0.00 | 0.00 | 94 | 1010.1 |
| 20260906062027 | 80 | 237 | 0.0 | 0.9 | 0.00 | 0.00 | 0.00 | 94 | 1010.5 |
| 20260906061523 | 80 | 237 | 0.0 | 0.9 | 0.00 | 0.00 | 0.00 | 94 | 1010.1 |
| 20260906061022 | 80 | 237 | 0.0 | 0.9 | 0.00 | 0.00 | 0.00 | 94 | 1010.1 |
| 20260906060519 | 80 | 237 | 0.9 | 0.9 | 0.00 | 0.00 | 0.00 | 94 | 1010.5 |
| 20260906060016 | 80 | 237 | 0.9 | 0.9 | 0.00 | 0.00 | 0.00 | 94 | 1010.5 |
| 20260906055511 | 80 | 237 | 0.0 | 0.9 | 0.00 | 0.00 | 0.00 | 94 | 1010.5 |
| 20260906055007 | 80 | 237 | 0.0 | 0.9 | 0.00 | 0.00 | 0.00 | 93 | 1010.5 |
| 20260906054501 | 80 | 237 | 0.0 | 0.9 | 0.00 | 0.00 | 0.00 | 93 | 1010.5 |
| 20260906053956 | 80 | 237 | 0.0 | 0.9 | 0.00 | 0.00 | 0.00 | 93 | 1010.5 |
| 20260906053453 | 80 | 237 | 0.0 | 0.0 | 0.00 | 0.00 | 0.00 | 93 | 1010.8 |
| 20260906052948 | 80 | 237 | 0.0 | 0.0 | 0.00 | 0.00 | 0.00 | 93 | 1010.8 |
| 20260906052444 | 80 | 237 | 0.0 | 0.0 | 0.00 | 0.00 | 0.00 | 93 | 1010.8 |
| 20260906051941 | 81 | 237 | 0.0 | 0.0 | 0.00 | 0.00 | 0.00 | 93 | 1010.8 |
| 20260906051436 | 80 | 237 | 0.0 | 0.0 | 0.00 | 0.00 | 0.00 | 93 | 1010.8 |
| 20260906050932 | 81 | 237 | 0.0 | 0.9 | 0.00 | 0.00 | 0.00 | 93 | 1011.1 |
| 20260906050431 | 81 | 237 | 0.0 | 0.9 | 0.00 | 0.00 | 0.00 | 93 | 1011.1 |
| 20260906045930 | 81 | 237 | 0.0 | 0.9 | 0.00 | 0.00 | 0.00 | 93 | 1010.8 |
| 20260906045429 | 81 | 237 | 0.0 | 0.9 | 0.00 | 0.00 | 0.00 | 93 | 1011.1 |
| 20260906044926 | 81 | 237 | 0.9 | 0.9 | 0.00 | 0.00 | 0.00 | 93 | 1010.8 |
| 20260906044420 | 81 | 237 | 0.0 | 0.9 | 0.00 | 0.00 | 0.00 | 93 | 1011.1 |
| 20260906043916 | 81 | 237 | 0.0 | 0.9 | 0.00 | 0.00 | 0.00 | 93 | 1010.8 |
| 20260906043412 | 81 | 237 | 0.0 | 0.9 | 0.00 | 0.00 | 0.00 | 93 | 1010.8 |
| 20260906042907 | 81 | 237 | 0.0 | 1.7 | 0.00 | 0.00 | 0.00 | 93 | 1010.8 |
| 20260906042406 | 81 | 237 | 0.0 | 1.7 | 0.00 | 0.00 | 0.00 | 92 | 1010.8 |
| 20260906041901 | 81 | 237 | 0.0 | 0.9 | 0.00 | 0.00 | 0.00 | 92 | 1010.8 |
| 20260906041356 | 82 | 238 | 0.0 | 0.9 | 0.00 | 0.00 | 0.00 | 92 | 1011.1 |
| 20260906040851 | 82 | 231 | 0.0 | 1.7 | 0.00 | 0.00 | 0.00 | 92 | 1011.1 |
| 20260906040346 | 82 | 231 | 0.0 | 1.7 | 0.00 | 0.00 | 0.00 | 92 | 1011.1 |
| 20260906035842 | 82 | 221 | 0.0 | 2.6 | 0.00 | 0.00 | 0.00 | 92 | 1011.1 |
| 20260906035337 | 82 | 217 | 0.0 | 2.6 | 0.00 | 0.00 | 0.00 | 92 | 1011.1 |
| 20260906034832 | 82 | 242 | 1.7 | 2.6 | 0.00 | 0.00 | 0.00 | 92 | 1011.1 |
| 20260906034327 | 82 | 198 | 0.0 | 5.2 | 0.00 | 0.00 | 0.00 | 92 | 1011.1 |
| 20260906033823 | 82 | 168 | 0.9 | 5.2 | 0.00 | 0.00 | 0.00 | 92 | 1011.1 |
| 20260906033322 | 82 | 226 | 0.9 | 5.2 | 0.00 | 0.00 | 0.00 | 92 | 1011.1 |
| 20260906032818 | 82 | 210 | 0.9 | 5.2 | 0.00 | 0.00 | 0.00 | 92 | 1011.1 |
| 20260906032314 | 82 | 240 | 0.0 | 5.2 | 0.00 | 0.00 | 0.00 | 92 | 1011.1 |
| 20260906031809 | 82 | 189 | 1.7 | 5.2 | 0.00 | 0.00 | 0.00 | 92 | 1011.5 |
| 20260906031305 | 82 | 243 | 0.0 | 7.0 | 0.00 | 0.00 | 0.00 | 92 | 1011.5 |
| 20260906030804 | 82 | 275 | 0.9 | 7.0 | 0.00 | 0.00 | 0.00 | 92 | 1011.5 |
| 20260906030259 | 82 | 187 | 1.7 | 6.1 | 0.00 | 0.00 | 0.00 | 91 | 1011.1 |
| 20260906025759 | 82 | 204 | 0.9 | 6.1 | 0.00 | 0.00 | 0.00 | 91 | 1011.5 |
| 20260906025253 | 82 | 186 | 0.9 | 5.2 | 0.00 | 0.00 | 0.00 | 91 | 1011.1 |
| 20260906024752 | 83 | 197 | 1.7 | 7.8 | 0.00 | 0.00 | 0.00 | 91 | 1011.1 |
| 20260906024251 | 82 | 158 | 0.9 | 8.7 | 0.00 | 0.00 | 0.00 | 91 | 1011.1 |
| 20260906023747 | 82 | 232 | 2.6 | 9.6 | 0.00 | 0.00 | 0.00 | 91 | 1011.1 |
| 20260906023242 | 82 | 236 | 1.7 | 9.6 | 0.00 | 0.00 | 0.00 | 91 | 1011.1 |
| 20260906022738 | 82 | 233 | 4.3 | 7.8 | 0.00 | 0.00 | 0.00 | 91 | 1010.8 |
| 20260906022233 | 82 | 202 | 1.7 | 6.1 | 0.00 | 0.00 | 0.00 | 90 | 1010.8 |
| 20260906021729 | 82 | 190 | 2.6 | 6.1 | 0.00 | 0.00 | 0.00 | 90 | 1011.1 |
| 20260906021228 | 82 | 227 | 0.9 | 5.2 | 0.00 | 0.00 | 0.00 | 90 | 1011.1 |
| 20260906020723 | 83 | 196 | 0.9 | 5.2 | 0.00 | 0.00 | 0.00 | 90 | 1011.1 |
| 20260906020218 | 83 | 171 | 3.5 | 5.2 | 0.00 | 0.00 | 0.00 | 90 | 1011.1 |
| 20260906015712 | 83 | 241 | 3.5 | 5.2 | 0.00 | 0.00 | 0.00 | 90 | 1010.8 |
| 20260906015210 | 83 | 195 | 2.6 | 5.2 | 0.00 | 0.00 | 0.00 | 89 | 1011.1 |
| 20260906014705 | 83 | 208 | 2.6 | 5.2 | 0.00 | 0.00 | 0.00 | 89 | 1011.1 |
| 20260906014201 | 83 | 216 | 1.7 | 5.2 | 0.00 | 0.00 | 0.00 | 89 | 1010.8 |
| 20260906013657 | 83 | 194 | 0.9 | 4.3 | 0.00 | 0.00 | 0.00 | 89 | 1010.8 |
| 20260906013152 | 83 | 198 | 2.6 | 6.1 | 0.00 | 0.00 | 0.00 | 89 | 1011.1 |
| 20260906012651 | 83 | 202 | 0.9 | 6.1 | 0.00 | 0.00 | 0.00 | 88 | 1011.1 |
| 20260906012146 | 83 | 185 | 0.9 | 6.1 | 0.00 | 0.00 | 0.00 | 88 | 1010.8 |
| 20260906011642 | 83 | 189 | 2.6 | 5.2 | 0.00 | 0.00 | 0.00 | 88 | 1010.8 |
| 20260906011136 | 83 | 227 | 2.6 | 5.2 | 0.00 | 0.00 | 0.00 | 88 | 1010.8 |
| 20260906010631 | 83 | 183 | 2.6 | 5.2 | 0.00 | 0.00 | 0.00 | 87 | 1011.1 |
| 20260906010128 | 84 | 233 | 1.7 | 6.1 | 0.00 | 0.00 | 0.00 | 87 | 1010.8 |
| 20260906005621 | 84 | 188 | 1.7 | 7.0 | 0.00 | 0.00 | 0.00 | 87 | 1010.8 |
| 20260906005121 | 84 | 190 | 1.7 | 7.0 | 0.00 | 0.00 | 0.00 | 87 | 1010.8 |
| 20260906004620 | 84 | 192 | 0.9 | 5.2 | 0.00 | 0.00 | 0.00 | 86 | 1010.8 |
| 20260906004115 | 84 | 184 | 3.5 | 5.2 | 0.00 | 0.00 | 0.00 | 86 | 1011.1 |
| 20260906003610 | 84 | 201 | 0.9 | 4.3 | 0.00 | 0.00 | 0.00 | 86 | 1011.1 |
| 20260906003106 | 84 | 235 | 2.6 | 5.2 | 0.00 | 0.00 | 0.00 | 85 | 1011.1 |
| 20260906002601 | 84 | 249 | 0.0 | 6.1 | 0.00 | 0.00 | 0.00 | 85 | 1010.8 |
| 20260906002055 | 85 | 204 | 2.6 | 6.1 | 0.00 | 0.00 | 0.00 | 84 | 1010.8 |
| 20260906001545 | 85 | 192 | 1.7 | 5.2 | 0.00 | 0.00 | 0.00 | 84 | 1010.8 |
| 20260906001045 | 85 | 198 | 0.9 | 6.1 | 0.00 | 0.00 | 0.00 | 83 | 1010.8 |
| 20260906000541 | 85 | 205 | 2.6 | 7.0 | 0.00 | 0.00 | 0.00 | 82 | 1010.8 |
| 20260906000036 | 86 | 199 | 0.9 | 7.8 | 0.00 | 0.00 | 0.00 | 81 | 1010.8 |
| 20260905235530 | 86 | 183 | 2.6 | 8.7 | 0.00 | 0.00 | 0.00 | 80 | 1010.8 |
| 20260905235025 | 86 | 214 | 4.3 | 11.3 | 0.00 | 0.00 | 0.00 | 79 | 1011.1 |
| 20260905234520 | 86 | 216 | 7.0 | 11.3 | 0.00 | 0.00 | 0.00 | 78 | 1010.5 |
| 20260905234015 | 86 | 154 | 0.0 | 1.7 | 0.00 | 0.00 | 0.00 | 77 | 1010.8 |
| 20260905233510 | 86 | 154 | 0.0 | 1.7 | 0.00 | 0.00 | 0.00 | 77 | 1010.5 |
| 20260905233009 | 86 | 196 | 0.0 | 1.7 | 0.00 | 0.00 | 0.00 | 76 | 1010.5 |
| 20260905232505 | 86 | 195 | 0.0 | 1.7 | 0.00 | 0.00 | 0.00 | 76 | 1010.5 |
| 20260905232001 | 87 | 198 | 0.0 | 1.7 | 0.00 | 0.00 | 0.00 | 75 | 1010.5 |
| 20260905231456 | 87 | 194 | 0.0 | 2.6 | 0.00 | 0.00 | 0.00 | 75 | 1010.5 |
| 20260905230952 | 87 | 202 | 0.9 | 2.6 | 0.00 | 0.00 | 0.00 | 75 | 1010.5 |
| 20260905230450 | 87 | 198 | 1.7 | 5.2 | 0.00 | 0.00 | 0.00 | 75 | 1010.5 |
| 20260905225949 | 87 | 227 | 0.0 | 5.2 | 0.00 | 0.00 | 0.00 | 75 | 1010.5 |
| 20260905225444 | 88 | 178 | 0.0 | 2.6 | 0.00 | 0.00 | 0.00 | 75 | 1010.1 |
| 20260905224939 | 88 | 205 | 0.9 | 4.3 | 0.00 | 0.00 | 0.00 | 74 | 1010.1 |
| 20260905224435 | 88 | 207 | 0.0 | 7.0 | 0.00 | 0.00 | 0.00 | 74 | 1010.1 |
| 20260905223933 | 88 | 229 | 0.0 | 7.0 | 0.00 | 0.00 | 0.00 | 73 | 1010.5 |
| 20260905223432 | 88 | 201 | 3.5 | 9.6 | 0.00 | 0.00 | 0.00 | 73 | 1010.1 |
| 20260905222927 | 89 | 184 | 5.2 | 7.8 | 0.00 | 0.00 | 0.00 | 71 | 1010.1 |
| 20260905222426 | 90 | 228 | 0.9 | 6.1 | 0.00 | 0.00 | 0.00 | 71 | 1010.5 |
| 20260905221922 | 90 | 203 | 4.3 | 6.1 | 0.00 | 0.00 | 0.00 | 70 | 1010.1 |
| 20260905221419 | 90 | 192 | 4.3 | 5.2 | 0.00 | 0.00 | 0.00 | 69 | 1010.5 |
| 20260905220915 | 90 | 215 | 0.0 | 4.3 | 0.00 | 0.00 | 0.00 | 69 | 1010.5 |
| 20260905220410 | 91 | 196 | 0.0 | 4.3 | 0.00 | 0.00 | 0.00 | 66 | 1010.5 |
| 20260905215909 | 92 | 266 | 0.9 | 4.3 | 0.00 | 0.00 | 0.00 | 67 | 1010.8 |
| 20260905215405 | 92 | 169 | 1.7 | 6.1 | 0.00 | 0.00 | 0.00 | 67 | 1010.5 |
| 20260905214901 | 91 | 201 | 0.9 | 6.1 | 0.00 | 0.00 | 0.00 | 68 | 1011.1 |
| 20260905214356 | 90 | 178 | 1.7 | 6.1 | 0.00 | 0.00 | 0.00 | 69 | 1010.5 |
| 20260905213851 | 89 | 231 | 0.0 | 2.6 | 0.00 | 0.00 | 0.00 | 69 | 1010.8 |
| 20260905213348 | 90 | 231 | 0.0 | 2.6 | 0.00 | 0.00 | 0.00 | 67 | 1010.8 |
| 20260905212848 | 91 | 168 | 0.9 | 2.6 | 0.00 | 0.00 | 0.00 | 64 | 1010.8 |
| 20260905212347 | 93 | 212 | 0.9 | 2.6 | 0.00 | 0.00 | 0.00 | 63 | 1010.8 |
| 20260905211842 | 92 | 84 | 0.9 | 4.3 | 0.00 | 0.00 | 0.00 | 63 | 1010.5 |
| 20260905211337 | 92 | 190 | 0.0 | 4.3 | 0.00 | 0.00 | 0.00 | 63 | 1010.5 |
| 20260905210833 | 92 | 281 | 2.6 | 4.3 | 0.00 | 0.00 | 0.00 | 63 | 1010.5 |
| 20260905210328 | 92 | 125 | 0.9 | 7.0 | 0.00 | 0.00 | 0.00 | 62 | 1010.5 |
| 20260905205827 | 93 | 237 | 0.9 | 7.0 | 0.00 | 0.00 | 0.00 | 62 | 1010.5 |
| 20260905205321 | 93 | 209 | 0.0 | 4.3 | 0.00 | 0.00 | 0.00 | 62 | 1010.1 |
| 20260905204821 | 93 | 185 | 1.7 | 4.3 | 0.00 | 0.00 | 0.00 | 61 | 1010.1 |
| 20260905204317 | 93 | 265 | 2.6 | 6.1 | 0.00 | 0.00 | 0.00 | 61 | 1010.1 |
| 20260905203815 | 93 | 286 | 4.3 | 7.8 | 0.00 | 0.00 | 0.00 | 62 | 1010.1 |
| 20260905203312 | 92 | 336 | 2.6 | 6.1 | 0.00 | 0.00 | 0.00 | 62 | 1009.8 |
| 20260905202807 | 92 | 191 | 0.0 | 5.2 | 0.00 | 0.00 | 0.00 | 64 | 1009.8 |
| 20260905202306 | 91 | 269 | 1.7 | 5.2 | 0.00 | 0.00 | 0.00 | 64 | 1010.1 |
| 20260905201758 | 91 | 279 | 2.6 | 4.3 | 0.00 | 0.00 | 0.00 | 65 | 1009.8 |
| 20260905201253 | 91 | 34 | 1.7 | 6.1 | 0.00 | 0.00 | 0.00 | 65 | 1010.1 |
| 20260905200747 | 91 | 209 | 1.7 | 5.2 | 0.00 | 0.00 | 0.00 | 66 | 1010.1 |
| 20260905200243 | 91 | 174 | 2.6 | 5.2 | 0.00 | 0.00 | 0.00 | 65 | 1010.1 |
| 20260905195741 | 91 | 205 | 1.7 | 5.2 | 0.00 | 0.00 | 0.00 | 67 | 1010.1 |
| 20260905195236 | 90 | 27 | 1.7 | 4.3 | 0.00 | 0.00 | 0.00 | 66 | 1010.1 |
| 20260905194732 | 91 | 286 | 1.7 | 7.8 | 0.00 | 0.00 | 0.00 | 66 | 1010.5 |
| 20260905194231 | 91 | 225 | 3.5 | 7.8 | 0.00 | 0.00 | 0.00 | 67 | 1010.5 |
| 20260905193725 | 90 | 16 | 3.5 | 6.1 | 0.00 | 0.00 | 0.00 | 67 | 1010.5 |
| 20260905193220 | 90 | 279 | 3.5 | 6.1 | 0.00 | 0.00 | 0.00 | 67 | 1010.5 |
| 20260905192716 | 91 | 267 | 0.9 | 7.8 | 0.00 | 0.00 | 0.00 | 68 | 1010.5 |
| 20260905192213 | 90 | 283 | 0.9 | 7.8 | 0.00 | 0.00 | 0.00 | 68 | 1010.8 |
| 20260905191711 | 90 | 291 | 6.1 | 7.0 | 0.00 | 0.00 | 0.00 | 68 | 1010.8 |
| 20260905191209 | 90 | 189 | 1.7 | 7.0 | 0.00 | 0.00 | 0.00 | 68 | 1011.1 |
| 20260905190709 | 90 | 316 | 4.3 | 7.0 | 0.00 | 0.00 | 0.00 | 68 | 1011.1 |
| 20260905190208 | 90 | 88 | 1.7 | 7.0 | 0.00 | 0.00 | 0.00 | 69 | 1011.1 |
| 20260905185707 | 90 | 247 | 1.7 | 6.1 | 0.00 | 0.00 | 0.00 | 69 | 1011.1 |
| 20260905185207 | 90 | 250 | 3.5 | 6.1 | 0.00 | 0.00 | 0.00 | 68 | 1011.1 |
| 20260905184701 | 90 | 257 | 2.6 | 6.1 | 0.00 | 0.00 | 0.00 | 69 | 1011.5 |
| 20260905184200 | 90 | 170 | 3.5 | 6.1 | 0.00 | 0.00 | 0.00 | 69 | 1011.1 |
| 20260905183700 | 90 | 188 | 2.6 | 4.3 | 0.00 | 0.00 | 0.00 | 69 | 1011.5 |
| 20260905183155 | 90 | 94 | 0.9 | 6.1 | 0.00 | 0.00 | 0.00 | 70 | 1011.5 |
| 20260905182655 | 89 | 282 | 0.9 | 6.1 | 0.00 | 0.00 | 0.00 | 71 | 1011.5 |
| 20260905182154 | 89 | 274 | 1.7 | 5.2 | 0.00 | 0.00 | 0.00 | 70 | 1011.8 |
| 20260905181650 | 89 | 206 | 0.9 | 5.2 | 0.00 | 0.00 | 0.00 | 72 | 1011.8 |
| 20260905181149 | 88 | 224 | 1.7 | 5.2 | 0.00 | 0.00 | 0.00 | 72 | 1011.8 |
| 20260905180643 | 88 | 277 | 1.7 | 5.2 | 0.00 | 0.00 | 0.00 | 72 | 1011.8 |
| 20260905180139 | 88 | 203 | 3.5 | 5.2 | 0.00 | 0.00 | 0.00 | 72 | 1012.2 |
| 20260905175638 | 88 | 325 | 2.6 | 4.3 | 0.00 | 0.00 | 0.00 | 73 | 1012.2 |
| 20260905175133 | 88 | 134 | 1.7 | 6.1 | 0.00 | 0.00 | 0.00 | 73 | 1012.5 |
| 20260905174629 | 87 | 215 | 2.6 | 6.1 | 0.00 | 0.00 | 0.00 | 74 | 1012.5 |
| 20260905174124 | 88 | 269 | 1.7 | 6.1 | 0.00 | 0.00 | 0.00 | 73 | 1012.5 |
| 20260905173621 | 88 | 149 | 3.5 | 6.1 | 0.00 | 0.00 | 0.00 | 74 | 1012.5 |
| 20260905173116 | 89 | 175 | 0.0 | 6.1 | 0.00 | 0.00 | 0.00 | 74 | 1012.5 |
| 20260905172615 | 88 | 272 | 0.9 | 6.1 | 0.00 | 0.00 | 0.00 | 74 | 1012.8 |
| 20260905172110 | 88 | 271 | 3.5 | 7.0 | 0.00 | 0.00 | 0.00 | 76 | 1012.5 |
| 20260905171606 | 88 | 228 | 4.3 | 7.0 | 0.00 | 0.00 | 0.00 | 76 | 1012.8 |
| 20260905171102 | 87 | 143 | 1.7 | 7.8 | 0.00 | 0.00 | 0.00 | 76 | 1012.8 |
| 20260905170558 | 87 | 215 | 0.9 | 7.8 | 0.00 | 0.00 | 0.00 | 76 | 1012.8 |
| 20260905170054 | 87 | 304 | 0.9 | 6.1 | 0.00 | 0.00 | 0.00 | 77 | 1013.2 |
| 20260905165548 | 87 | 79 | 1.7 | 5.2 | 0.00 | 0.00 | 0.00 | 77 | 1013.2 |
| 20260905165043 | 86 | 105 | 2.6 | 6.1 | 0.00 | 0.00 | 0.00 | 79 | 1013.2 |
| 20260905164538 | 86 | 175 | 4.3 | 5.2 | 0.00 | 0.00 | 0.00 | 78 | 1013.2 |
| 20260905164032 | 86 | 228 | 0.9 | 5.2 | 0.00 | 0.00 | 0.00 | 77 | 1013.2 |
| 20260905163528 | 86 | 188 | 0.9 | 5.2 | 0.00 | 0.00 | 0.00 | 78 | 1013.2 |
| 20260905163025 | 86 | 132 | 1.7 | 5.2 | 0.00 | 0.00 | 0.00 | 78 | 1013.5 |
| 20260905162520 | 86 | 129 | 2.6 | 6.1 | 0.00 | 0.00 | 0.00 | 79 | 1013.5 |
| 20260905162015 | 85 | 236 | 2.6 | 6.1 | 0.00 | 0.00 | 0.00 | 79 | 1013.5 |
| 20260905161514 | 86 | 278 | 2.6 | 5.2 | 0.00 | 0.00 | 0.00 | 79 | 1013.5 |
| 20260905161012 | 85 | 166 | 1.7 | 7.0 | 0.00 | 0.00 | 0.00 | 79 | 1013.5 |
| 20260905160505 | 85 | 304 | 2.6 | 7.0 | 0.00 | 0.00 | 0.00 | 80 | 1013.8 |
| 20260905160000 | 84 | 341 | 3.5 | 7.0 | 0.00 | 0.00 | 0.00 | 81 | 1013.8 |
| 20260905155455 | 84 | 293 | 1.7 | 7.0 | 0.00 | 0.00 | 0.00 | 81 | 1013.8 |
| 20260905154953 | 84 | 266 | 2.6 | 7.0 | 0.00 | 0.00 | 0.00 | 81 | 1013.8 |
| 20260905154449 | 84 | 281 | 2.6 | 7.8 | 0.00 | 0.00 | 0.00 | 81 | 1013.8 |
| 20260905153944 | 84 | 265 | 2.6 | 7.8 | 0.00 | 0.00 | 0.00 | 82 | 1013.8 |
| 20260905153440 | 84 | 298 | 0.0 | 5.2 | 0.00 | 0.00 | 0.00 | 81 | 1013.8 |
| 20260905152940 | 84 | 226 | 0.0 | 7.0 | 0.00 | 0.00 | 0.00 | 83 | 1014.2 |
| 20260905152440 | 84 | 272 | 0.9 | 7.0 | 0.00 | 0.00 | 0.00 | 82 | 1014.2 |
| 20260905151940 | 84 | 260 | 2.6 | 6.1 | 0.00 | 0.00 | 0.00 | 82 | 1014.2 |
| 20260905151435 | 83 | 249 | 0.9 | 5.2 | 0.00 | 0.00 | 0.00 | 83 | 1013.8 |
| 20260905150930 | 83 | 250 | 2.6 | 7.0 | 0.00 | 0.00 | 0.00 | 83 | 1014.2 |
| 20260905150425 | 83 | 351 | 0.9 | 7.0 | 0.00 | 0.00 | 0.00 | 83 | 1014.2 |
| 20260905145921 | 83 | 324 | 5.2 | 7.8 | 0.00 | 0.00 | 0.00 | 83 | 1013.8 |
| 20260905145416 | 83 | 269 | 2.6 | 7.8 | 0.00 | 0.00 | 0.00 | 83 | 1014.2 |
| 20260905144915 | 82 | 351 | 2.6 | 5.2 | 0.00 | 0.00 | 0.00 | 84 | 1014.2 |
| 20260905144411 | 82 | 312 | 2.6 | 7.0 | 0.00 | 0.00 | 0.00 | 85 | 1014.2 |
| 20260905143909 | 82 | 192 | 0.9 | 7.0 | 0.00 | 0.00 | 0.00 | 86 | 1014.2 |
| 20260905143403 | 82 | 237 | 0.0 | 7.0 | 0.00 | 0.00 | 0.00 | 86 | 1014.2 |
| 20260905142903 | 82 | 340 | 1.7 | 7.0 | 0.00 | 0.00 | 0.00 | 87 | 1014.2 |
| 20260905142356 | 81 | 235 | 0.0 | 5.2 | 0.00 | 0.00 | 0.00 | 87 | 1014.2 |
| 20260905141852 | 81 | 327 | 0.9 | 5.2 | 0.00 | 0.00 | 0.00 | 87 | 1014.2 |
| 20260905141347 | 81 | 8 | 2.6 | 6.1 | 0.00 | 0.00 | 0.00 | 88 | 1014.2 |
| 20260905140844 | 81 | 287 | 4.3 | 6.1 | 0.00 | 0.00 | 0.00 | 88 | 1014.2 |
| 20260905140344 | 81 | 318 | 2.6 | 6.1 | 0.00 | 0.00 | 0.00 | 88 | 1014.2 |
| 20260905135842 | 81 | 215 | 3.5 | 6.1 | 0.00 | 0.00 | 0.00 | 89 | 1014.2 |
| 20260905135338 | 80 | 66 | 0.9 | 5.2 | 0.00 | 0.00 | 0.00 | 89 | 1014.2 |
| 20260905134833 | 80 | 262 | 0.9 | 5.2 | 0.00 | 0.00 | 0.00 | 89 | 1014.2 |
| 20260905134327 | 80 | 326 | 1.7 | 5.2 | 0.00 | 0.00 | 0.00 | 89 | 1014.2 |
| 20260905133827 | 80 | 185 | 0.0 | 6.1 | 0.00 | 0.00 | 0.00 | 90 | 1014.2 |
| 20260905133322 | 80 | 249 | 0.9 | 7.0 | 0.00 | 0.00 | 0.00 | 90 | 1014.2 |
| 20260905132821 | 80 | 262 | 1.7 | 7.0 | 0.00 | 0.00 | 0.00 | 90 | 1014.2 |
| 20260905132317 | 80 | 289 | 2.6 | 6.1 | 0.00 | 0.00 | 0.00 | 90 | 1014.2 |
| 20260905131817 | 80 | 299 | 1.7 | 7.0 | 0.00 | 0.00 | 0.00 | 90 | 1014.2 |
| 20260905131313 | 80 | 264 | 0.9 | 7.0 | 0.00 | 0.00 | 0.00 | 90 | 1014.2 |
| 20260905130808 | 80 | 293 | 4.3 | 7.0 | 0.00 | 0.00 | 0.00 | 90 | 1014.2 |
| 20260905130306 | 80 | 286 | 3.5 | 7.0 | 0.00 | 0.00 | 0.00 | 90 | 1014.2 |
| 20260905125802 | 80 | 259 | 2.6 | 6.1 | 0.00 | 0.00 | 0.00 | 90 | 1014.2 |
| 20260905125256 | 81 | 294 | 0.9 | 5.2 | 0.00 | 0.00 | 0.00 | 91 | 1013.8 |
| 20260905124753 | 80 | 302 | 1.7 | 5.2 | 0.00 | 0.00 | 0.00 | 91 | 1013.8 |
| 20260905124249 | 80 | 332 | 2.6 | 5.2 | 0.00 | 0.00 | 0.00 | 91 | 1013.8 |
| 20260905123743 | 80 | 233 | 0.9 | 5.2 | 0.00 | 0.00 | 0.00 | 92 | 1013.8 |
| 20260905123241 | 80 | 284 | 0.0 | 4.3 | 0.00 | 0.00 | 0.00 | 92 | 1013.8 |
| 20260905122741 | 80 | 256 | 0.0 | 5.2 | 0.00 | 0.00 | 0.00 | 92 | 1013.8 |
| 20260905122240 | 79 | 293 | 2.6 | 5.2 | 0.00 | 0.00 | 0.00 | 92 | 1013.8 |
| 20260905121736 | 80 | 259 | 0.0 | 2.6 | 0.00 | 0.00 | 0.00 | 93 | 1013.8 |
| 20260905121232 | 79 | 333 | 2.6 | 2.6 | 0.00 | 0.00 | 0.00 | 93 | 1013.8 |
| 20260905120730 | 79 | 293 | 0.0 | 2.6 | 0.00 | 0.00 | 0.00 | 93 | 1013.8 |
| 20260905120225 | 79 | 300 | 0.0 | 1.7 | 0.00 | 0.00 | 0.00 | 93 | 1013.8 |
| 20260905115720 | 79 | 299 | 0.0 | 1.7 | 0.00 | 0.00 | 0.00 | 93 | 1013.5 |